Regional Weather Roundup
Issued by NWS

Home | Current Version | Previous Version | Graphics & Text | Print | Product List | Glossary On
Versions: 1 2 3 4 5 6 7 8 9 10 11 12 13 14 15 16 17 18 19 20 21 22 23 24 25 26 27 28 29 30 31 32 33 34 35 36 37 38 39 40 41 42 43 44 45 46 47 48 49 50
000
ASUS43 KDMX 201006
RWRIA

WEATHER ROUNDUP FOR IOWA
NATIONAL WEATHER SERVICE DES MOINES IA
500 AM CDT FRI APR 20 2018

NOTE: "FAIR" INDICATES FEW OR NO CLOUDS BELOW 12,000 FEET WITH NO
SIGNIFICANT WEATHER AND/OR OBSTRUCTIONS TO VISIBILITY.

* - THESE STATIONS ARE NOT NWS STATIONS...THUS NOT UNDER NWS
QUALITY CONTROL.  THEY ALSO DO NOT REPORT WEATHER SUCH
AS PRECIPITATION OR FOG.

IAZ001>003-012>014-020>022-031>034-043>046-201100-
   NORTHWEST IOWA

CITY           SKY/WX    TMP DP  RH WIND       PRES   REMARKS
CARROLL *      CLOUDY    28  28 100 CALM      30.46S
CHEROKEE *     CLOUDY    26  24  91 CALM      30.45S
DENISON *      CLOUDY    32  27  80 E5        30.45S WCI  27
LE MARS *      PTCLDY    34  25  69 SE5       30.43S WCI  30
ORANGE CITY *  CLOUDY    30  23  74 E5        30.42S WCI  25
SHELDON *      CLOUDY    28  25  86 SE7       30.42S WCI  21
SIOUX CITY     PTCLDY    31  24  75 E9        30.42S WCI  23
SPENCER        PTCLDY    22  17  81 E5        30.45S WCI  16
STORM LAKE *   CLOUDY    28  23  80 SE10      30.44S WCI  19
$$

IAZ055>058-069>071-079>083-090>094-201100-
   SOUTHWEST IOWA

CITY           SKY/WX    TMP DP  RH WIND       PRES   REMARKS
ATLANTIC *     CLOUDY    34  27  75 NE5       30.44S WCI  30
AUDUBON *      CLOUDY    28  25  86 CALM      30.46S
CLARINDA *     CLOUDY    32  27  80 CALM      30.46S
COUNCIL BLFS * CLEAR     36  28  75 SE8       30.41F WCI  29
CRESTON *      CLOUDY    32  25  74 E10       30.45F WCI  24
HARLAN  *      CLOUDY    34  27  75 E5        30.47S WCI  30
LAMONI         CLOUDY    32  24  72 NE6       30.44S WCI  26
RED OAK *      CLOUDY    34  27  75 CALM      30.44S
SHENANDOAH *   CLOUDY    34  27  75 NE5       30.44S WCI  30
$$

IAZ047>049-059>061-072>074-084-201100-
   CENTRAL IOWA

CITY           SKY/WX    TMP DP  RH WIND       PRES   REMARKS
AMES           CLOUDY    29  25  85 CALM      30.48S
ANKENY *       CLOUDY    32  25  74 CALM      30.49S
BOONE *        CLOUDY    32  27  80 E5        30.46S WCI  27
CHARITON *     CLOUDY    32  25  74 E7        30.46S WCI  26
DES MOINES     CLOUDY    35  24  64 E6        30.48R WCI  30
GRINNELL*      PTCLDY    31  24  75 E7        30.48F WCI  25
KNOXVILLE *    CLOUDY    34  23  64 E6        30.46S WCI  29
MARSHALLTOWN   CLOUDY    29  25  85 NE3       30.47F
NEWTON *       CLOUDY    32  23  69 NE8       30.48S WCI  25
PELLA *        CLOUDY    33  24  71 CALM      30.49S
PERRY *        FAIR      30  27  88 CALM      30.47F
$$

IAZ004>006-015-016-023>025-035-036-201100-
   NORTH CENTRAL IOWA

CITY           SKY/WX    TMP DP  RH WIND       PRES   REMARKS
ALGONA *       CLOUDY    21  19  93 CALM      30.46S FOG
CLARION *      CLOUDY    27  23  86 E9        30.47S WCI  17
ESTHERVILLE    CLOUDY    18  15  88 CALM      30.45S FOG
FORT DODGE *   CLOUDY    26  23  88 CALM      30.47S
MASON CITY     CLOUDY    18  15  88 CALM      30.48F
FOREST CITY *  FAIR     N/A N/A N/A CALM      30.47F HAZE
WEBSTER CITY * CLOUDY    30  27  86 E5        30.45S WCI  25
IOWA FALLS *   FAIR      30  26  86 CALM      30.48F
$$

IAZ007>011-017>019-026>030-037>042-050>054-066-201100-
   NORTHEAST IOWA

CITY           SKY/WX    TMP DP  RH WIND       PRES   REMARKS
CEDAR RAPIDS   FAIR      27  23  85 N5        30.48R WCI  22
CHARLES CITY * FAIR      25  25 100 NE7       30.48F WCI  17
CLINTON *      FAIR      28  26  92 N5        30.50S WCI  23
DECORAH *      FAIR      27  23  86 CALM      30.48S
DUBUQUE        FAIR      31  22  69 CALM      30.48S
MONTICELLO *   FAIR      23  23 100 CALM      30.49S
OELWEIN *      FAIR      28  28 100 NE6       30.49S WCI  22
WATERLOO       FAIR      23  21  92 CALM      30.49S
$$

IAZ064-065-067-068-078-201100-
   EAST CENTRAL IOWA

CITY           SKY/WX    TMP DP  RH WIND       PRES   REMARKS
DAVENPORT      FAIR      29  25  85 N3        30.51R
IOWA CITY      FAIR      28  23  81 CALM      30.51R
MT. PLEASANT * CLOUDY    30  23  74 N6        30.49R WCI  24
MUSCATINE *    FAIR      30  25  80 CALM      30.51R
QUAD CITIES    FAIR      26  23  88 CALM      30.49R
$$

IAZ062-063-075>077-085>089-095>099-201100-
   SOUTHEAST IOWA

CITY           SKY/WX    TMP DP  RH WIND       PRES   REMARKS
BURLINGTON     CLOUDY    35  25  66 N6        30.48R WCI  30
FAIRFIELD *    CLOUDY    28  21  74 NE7       30.48S WCI  21
FORT MADISON * CLEAR     34  27  75 CALM      30.49R
KEOKUK *       CLEAR     32  28  86 NE3       30.47S
OSKALOOSA *    FAIR      29  24  80 NE8       30.48F WCI  21
CENTERVILLE *    N/A     32  27  80 CALM      30.48R
OTTUMWA        CLOUDY    32  24  72 NE9       30.48R WCI  24
WASHINGTON *   CLOUDY    30  27  86 NE6       30.50S WCI  24
$$

ABBREVIATIONS USED IN REMARKS
   TC - TEMPERATURES IN CELSIUS
  WCI - WIND CHILL INDEX
   HX - HEAT INDEX
  VSB - VISIBILITY
$$





USA.gov is the U.S. government's official web portal to all federal, state and local government web resources and services.